QPF
0.00 0.00 0.00 0.00 0.00 0.00 0.00 0.00 0.00 0.00 0.00 0.00 0.00 0.00 0.00 0.00 0.00 0.00 0.00 0.00 0.00 0.00 0.00 0.00 0.00 0.00 0.00 0.00 0.00 0.00 0.00 0.00 0.00 0.00 0.00 0.00 0.00 0.00 0.00 0.00 0.00 0.00 0.01 0.06 0.01 0.00 0.00 0.00 0.00
0.00 0.00 0.00 0.00 0.00 0.00 0.00 0.00 0.00 0.00 0.00 0.00 0.00 0.00 0.00 0.00 0.00 0.00 0.00 0.00 0.00 0.00 0.00 0.00 0.00 0.00 0.00 0.00 0.00 0.00 0.00 0.00 0.00 0.00 0.00 0.00 0.00 0.00 0.00 0.00 0.00 0.00 0.00 0.01 0.02 0.00 0.00 0.00 0.00
0.00 0.00 0.00 0.00 0.00 0.00 0.00 0.00 0.00 0.00 0.00 0.00 0.00 0.00 0.00 0.00 0.00 0.00 0.00 0.00 0.00 0.00 0.00 0.00 0.00 0.00 0.00 0.00 0.00 0.00 0.00 0.00 0.00 0.00 0.00 0.00 0.00 0.00 0.00 0.00 0.00 0.00 0.00 0.00 0.00 0.00 0.00 0.00 0.00
0.00 0.00 0.00 0.00 0.00 0.00 0.00 0.00 0.00 0.00 0.00 0.00 0.00 0.00 0.00 0.00 0.00 0.00 0.00 0.00 0.00 0.00 0.00 0.00 0.00 0.00 0.00 0.00 0.00 0.00 0.00 0.00 0.00 0.00 0.00 0.00 0.00 0.00 0.00 0.00 0.00 0.00 0.00 0.00 0.00 0.02 0.00 0.00 0.00
0.00 0.00 0.00 0.00 0.00 0.00 0.00 0.00 0.00 0.00 0.00 0.00 0.00 0.00 0.00 0.00 0.00 0.00 0.00 0.00 0.00 0.00 0.00 0.00 0.00 0.00 0.00 0.00 0.00 0.00 0.00 0.00 0.00 0.00 0.00 0.00 0.00 0.00 0.00 0.00 0.00 0.00 0.00 0.00 0.00 0.00 0.00 0.00 0.00
0.00 0.00 0.00 0.00 0.00 0.00 0.00 0.00 0.00 0.00 0.00 0.00 0.00 0.00 0.00 0.00 0.00 0.00 0.00 0.00 0.00 0.00 0.00 0.00 0.00 0.00 0.00 0.00 0.00 0.00 0.00 0.00 0.00 0.00 0.00 0.00 0.00 0.01 0.00 0.00 0.00 0.00 0.00 0.00 0.00 0.00 0.00 0.01 0.01
0.00 0.00 0.00 0.00 0.00 0.00 0.00 0.00 0.00 0.00 0.00 0.00 0.00 0.00 0.00 0.00 0.00 0.00 0.00 0.00 0.00 0.00 0.00 0.00 0.00 0.00 0.00 0.00 0.00 0.00 0.00 0.00 0.00 0.00 0.00 0.00 0.00 0.01 0.02 0.00 0.00 0.00 0.00 0.00 0.02 0.04 0.05 0.09 0.09
0.00 0.00 0.00 0.00 0.00 0.00 0.00 0.00 0.00 0.00 0.00 0.00 0.00 0.00 0.00 0.00 0.00 0.00 0.00 0.00 0.00 0.00 0.00 0.00 0.00 0.00 0.00 0.00 0.00 0.00 0.00 0.00 0.00 0.00 0.00 0.00 0.00 0.00 0.01 0.02 0.00 0.00 0.00 0.00 0.01 0.01 0.01 0.01 0.00
0.00 0.00 0.00 0.00 0.00 0.00 0.00 0.00 0.00 0.00 0.00 0.00 0.00 0.00 0.00 0.00 0.00 0.00 0.00 0.00 0.00 0.00 0.00 0.00 0.00 0.00 0.00 0.00 0.00 0.00 0.00 0.00 0.00 0.00 0.00 0.00 0.00 0.00 0.00 0.00 0.00 0.02 0.00 0.01 0.02 0.00 0.00 0.00 0.00
0.00 0.00 0.00 0.00 0.00 0.00 0.00 0.00 0.00 0.00 0.00 0.00 0.00 0.00 0.00 0.00 0.00 0.00 0.00 0.00 0.00 0.00 0.00 0.00 0.00 0.00 0.00 0.00 0.00 0.00 0.00 0.00 0.00 0.00 0.00 0.00 0.00 0.00 0.00 0.00 0.00 0.00 0.00 0.00 0.00 0.00 0.00 0.00 0.00
0.00 0.00 0.00 0.00 0.00 0.00 0.00 0.00 0.00 0.00 0.00 0.00 0.00 0.00 0.00 0.00 0.00 0.00 0.00 0.00 0.00 0.00 0.00 0.00 0.00 0.00 0.00 0.00 0.00 0.00 0.00 0.00 0.00 0.00 0.00 0.00 0.00 0.00 0.00 0.03 0.03 0.01 0.00 0.00 0.00 0.00 0.00 0.00 0.00
0.00 0.00 0.00 0.00 0.00 0.00 0.00 0.00 0.00 0.00 0.00 0.00 0.00 0.00 0.00 0.00 0.00 0.00 0.00 0.00 0.00 0.00 0.00 0.00 0.00 0.00 0.00 0.00 0.00 0.00 0.00 0.00 0.00 0.00 0.00 0.00 0.00 0.00 0.00 0.01 0.08 0.01 0.00 0.02 0.00 0.00 0.00 0.00 0.00
0.00 0.00 0.00 0.00 0.00 0.00 0.00 0.00 0.00 0.00 0.00 0.00 0.00 0.00 0.00 0.00 0.00 0.00 0.00 0.00 0.00 0.00 0.00 0.00 0.00 0.00 0.00 0.00 0.00 0.00 0.00 0.00 0.00 0.00 0.00 0.00 0.00 0.00 0.01 0.02 0.04 0.04 0.04 0.01 0.00 0.00 0.00 0.00 0.00
0.00 0.00 0.00 0.00 0.00 0.00 0.00 0.00 0.00 0.00 0.00 0.00 0.00 0.00 0.00 0.00 0.00 0.00 0.00 0.00 0.00 0.00 0.00 0.00 0.00 0.00 0.00 0.00 0.00 0.00 0.00 0.00 0.00 0.00 0.00 0.00 0.00 0.00 0.00 0.02 0.01 0.03 0.01 0.02 0.00 0.00 0.00 0.00 0.00
0.00 0.00 0.00 0.00 0.00 0.00 0.00 0.00 0.00 0.00 0.00 0.00 0.00 0.00 0.00 0.00 0.00 0.00 0.00 0.00 0.00 0.00 0.00 0.00 0.00 0.00 0.00 0.00 0.00 0.00 0.00 0.00 0.00 0.00 0.00 0.00 0.00 0.00 0.00 0.00 0.01 0.01 0.01 0.01 0.00 0.00 0.00 0.00 0.01
0.00 0.00 0.00 0.00 0.00 0.00 0.00 0.00 0.00 0.00 0.00 0.00 0.00 0.00 0.00 0.00 0.00 0.00 0.00 0.00 0.00 0.00 0.00 0.00 0.00 0.00 0.00 0.00 0.00 0.00 0.00 0.00 0.00 0.00 0.00 0.00 0.00 0.00 0.00 0.00 0.00 0.00 0.00 0.02 0.02 0.00 0.00 0.01 0.02
0.00 0.00 0.00 0.00 0.00 0.00 0.00 0.00 0.00 0.00 0.00 0.00 0.00 0.00 0.00 0.00 0.00 0.00 0.00 0.00 0.00 0.00 0.00 0.00 0.00 0.00 0.00 0.00 0.00 0.00 0.00 0.00 0.00 0.00 0.00 0.00 0.00 0.00 0.00 0.00 0.00 0.00 0.00 0.00 0.02 0.01 0.00 0.00 0.01
0.00 0.00 0.00 0.00 0.00 0.00 0.00 0.00 0.00 0.00 0.00 0.00 0.00 0.00 0.00 0.00 0.00 0.00 0.00 0.00 0.00 0.00 0.00 0.00 0.00 0.00 0.00 0.00 0.00 0.00 0.00 0.00 0.00 0.00 0.00 0.00 0.00 0.00 0.00 0.00 0.00 0.00 0.01 0.01 0.00 0.00 0.00 0.00 0.00
0.00 0.00 0.00 0.00 0.00 0.00 0.00 0.00 0.00 0.00 0.00 0.00 0.00 0.00 0.00 0.00 0.00 0.00 0.00 0.00 0.00 0.00 0.00 0.00 0.00 0.00 0.00 0.00 0.00 0.00 0.00 0.00 0.00 0.00 0.00 0.00 0.00 0.00 0.00 0.00 0.00 0.00 0.00 0.00 0.00 0.01 0.01 0.01 0.01
0.00 0.00 0.00 0.00 0.00 0.00 0.01 0.00 0.00 0.00 0.00 0.00 0.00 0.00 0.00 0.00 0.00 0.00 0.00 0.00 0.00 0.00 0.00 0.00 0.00 0.00 0.00 0.00 0.00 0.00 0.00 0.00 0.00 0.00 0.00 0.00 0.00 0.00 0.00 0.00 0.00 0.00 0.00 0.00 0.01 0.01 0.01 0.01 0.05
0.00 0.00 0.00 0.00 0.00 0.00 0.01 0.00 0.00 0.00 0.00 0.00 0.00 0.00 0.00 0.00 0.00 0.00 0.00 0.00 0.00 0.00 0.00 0.00 0.00 0.00 0.00 0.00 0.00 0.00 0.00 0.00 0.00 0.00 0.00 0.00 0.00 0.00 0.00 0.00 0.00 0.00 0.00 0.00 0.00 0.00 0.00 0.01 0.09
0.00 0.00 0.00 0.00 0.00 0.04 0.01 0.01 0.00 0.00 0.00 0.00 0.00 0.00 0.00 0.00 0.00 0.00 0.00 0.00 0.00 0.00 0.00 0.00 0.00 0.00 0.00 0.00 0.00 0.00 0.00 0.00 0.00 0.00 0.00 0.00 0.00 0.00 0.00 0.00 0.00 0.00 0.00 0.00 0.00 0.00 0.00 0.01 0.15
0.00 0.00 0.00 0.00 0.02 0.01 0.01 0.00 0.00 0.00 0.00 0.00 0.00 0.00 0.00 0.00 0.00 0.00 0.00 0.00 0.00 0.00 0.00 0.00 0.02 0.03 0.00 0.00 0.00 0.00 0.00 0.00 0.00 0.00 0.00 0.00 0.00 0.00 0.00 0.00 0.00 0.00 0.00 0.00 0.00 0.00 0.00 0.00 0.06
0.00 0.00 0.01 0.01 0.01 0.01 0.00 0.00 0.00 0.00 0.00 0.00 0.00 0.00 0.00 0.00 0.00 0.00 0.00 0.00 0.00 0.00 0.00 0.00 0.00 0.03 0.05 0.01 0.00 0.00 0.00 0.00 0.00 0.00 0.00 0.00 0.00 0.00 0.00 0.00 0.00 0.00 0.00 0.00 0.00 0.00 0.00 0.00 0.03
0.00 0.00 0.01 0.01 0.02 0.00 0.00 0.00 0.00 0.01 0.00 0.00 0.00 0.00 0.00 0.00 0.00 0.00 0.00 0.00 0.00 0.00 0.00 0.00 0.00 0.00 0.02 0.01 0.00 0.00 0.00 0.00 0.00 0.00 0.00 0.00 0.00 0.00 0.00 0.00 0.00 0.00 0.00 0.00 0.00 0.00 0.00 0.00 0.01
0.00 0.00 0.01 0.01 0.00 0.00 0.00 0.00 0.00 0.00 0.00 0.02 0.04 0.01 0.00 0.00 0.00 0.00 0.00 0.00 0.00 0.00 0.00 0.00 0.00 0.00 0.00 0.01 0.00 0.00 0.01 0.01 0.00 0.00 0.00 0.00 0.00 0.00 0.00 0.00 0.00 0.00 0.00 0.00 0.00 0.00 0.00 0.00 0.00
0.00 0.00 0.00 0.01 0.01 0.01 0.00 0.04 0.02 0.02 0.02 0.05 0.05 0.02 0.00 0.00 0.00 0.00 0.00 0.00 0.00 0.00 0.00 0.00 0.00 0.00 0.00 0.00 0.00 0.01 0.04 0.03 0.01 0.00 0.00 0.00 0.00 0.00 0.00 0.00 0.00 0.00 0.00 0.00 0.00 0.00 0.00 0.00 0.00
0.00 0.00 0.03 0.09 0.07 0.13 0.02 0.09 0.17 0.31 0.30 0.13 0.04 0.00 0.00 0.00 0.00 0.00 0.00 0.00 0.00 0.00 0.00 0.00 0.00 0.00 0.00 0.00 0.00 0.03 0.05 0.01 0.03 0.00 0.00 0.00 0.00 0.00 0.00 0.00 0.00 0.00 0.00 0.00 0.00 0.00 0.00 0.00 0.00
0.00 0.02 0.03 0.03 0.08 0.19 0.13 0.35 0.38 0.60 0.59 0.37 0.02 0.00 0.00 0.00 0.00 0.00 0.00 0.00 0.00 0.00 0.00 0.01 0.01 0.01 0.01 0.01 0.04 0.07 0.04 0.04 0.08 0.03 0.00 0.00 0.00 0.00 0.00 0.00 0.00 0.00 0.00 0.00 0.00 0.00 0.00 0.00 0.01
0.09 0.05 0.02 0.05 0.06 0.13 0.23 0.55 0.79 0.38 0.27 0.05 0.01 0.00 0.00 0.00 0.00 0.00 0.00 0.00 0.00 0.00 0.00 0.03 0.03 0.05 0.07 0.08 0.10 0.10 0.11 0.16 0.12 0.04 0.00 0.00 0.02 0.03 0.00 0.00 0.00 0.00 0.01 0.01 0.00 0.00 0.00 0.00 0.01
MSLP
1011.46 1011.73 1012.19 1012.53 1013.48 1012.64 1011.64 1009.26 1006.78 1004.54 1003.39 1001.82 1000.80 1001.05 1001.84 1002.46 1003.58 1005.47 1005.91 1005.61 1006.51 1007.54 1008.15 1008.52 1008.58 1008.99 1009.50 1009.87 1010.29 1010.69 1011.11 1011.48 1011.86 1012.11 1012.46 1012.77 1013.10 1013.35 1013.72 1014.00 1014.20 1014.48 1014.87 1015.09 1015.34 1015.67 1015.95 1016.26 1016.46
1011.41 1011.60 1012.23 1012.62 1013.08 1012.54 1010.53 1007.65 1005.96 1004.37 1002.82 1001.33 1000.56 1000.79 1001.42 1003.09 1003.21 1004.89 1005.74 1006.25 1006.65 1007.56 1008.18 1008.55 1008.62 1009.08 1009.65 1010.04 1010.34 1010.73 1011.08 1011.52 1011.88 1012.21 1012.60 1012.99 1013.19 1013.37 1013.69 1014.11 1014.39 1014.56 1014.90 1015.18 1015.37 1015.69 1016.03 1016.37 1016.66
1011.45 1011.77 1012.62 1012.70 1012.26 1011.26 1009.61 1006.34 1005.34 1004.13 1002.26 1001.27 1001.06 1000.73 1001.45 1002.95 1003.67 1004.29 1005.06 1005.94 1006.72 1007.69 1008.12 1008.47 1008.67 1009.14 1009.78 1010.25 1010.49 1010.77 1011.12 1011.60 1011.93 1012.28 1012.68 1013.02 1013.27 1013.45 1013.71 1014.05 1014.38 1014.69 1014.91 1015.22 1015.52 1015.80 1016.18 1016.51 1016.82
1011.80 1012.20 1012.56 1011.84 1011.15 1009.60 1008.03 1005.13 1004.51 1004.16 1002.49 1001.31 1001.11 1001.31 1001.71 1002.35 1003.13 1003.76 1004.99 1005.74 1006.61 1007.58 1007.97 1008.42 1008.74 1009.26 1009.82 1010.31 1010.62 1010.95 1011.22 1011.70 1012.03 1012.38 1012.71 1013.05 1013.27 1013.53 1013.76 1014.05 1014.44 1014.74 1014.97 1015.29 1015.62 1016.08 1016.43 1016.77 1017.03
1012.09 1011.84 1012.23 1011.52 1010.07 1008.69 1006.93 1005.00 1004.61 1003.63 1002.60 1001.48 1001.19 1001.52 1002.08 1002.44 1002.63 1003.68 1004.68 1005.55 1006.45 1007.55 1008.03 1008.44 1008.79 1009.24 1009.78 1010.24 1010.66 1011.12 1011.35 1011.72 1012.11 1012.40 1012.71 1013.06 1013.27 1013.56 1013.89 1014.07 1014.38 1014.77 1015.11 1015.43 1015.81 1016.24 1016.60 1017.00 1017.35
1012.26 1011.64 1011.63 1010.77 1009.27 1007.82 1006.02 1004.01 1003.52 1002.89 1002.07 1001.67 1001.53 1001.72 1002.40 1002.65 1002.78 1003.70 1004.42 1005.53 1006.30 1007.34 1007.92 1008.53 1008.92 1009.26 1009.64 1010.21 1010.64 1011.13 1011.50 1011.77 1012.14 1012.42 1012.73 1013.04 1013.28 1013.53 1013.91 1014.28 1014.56 1014.85 1015.09 1015.52 1015.97 1016.43 1016.82 1017.16 1017.32
1011.19 1011.47 1010.73 1009.58 1008.49 1006.94 1005.20 1003.63 1003.00 1002.37 1001.57 1001.32 1001.23 1001.86 1002.53 1002.98 1002.99 1003.51 1004.15 1005.25 1006.50 1007.42 1007.98 1008.47 1008.98 1009.44 1009.50 1010.12 1010.68 1011.00 1011.39 1011.67 1011.97 1012.32 1012.67 1012.99 1013.31 1013.58 1013.91 1014.38 1014.63 1015.02 1015.21 1015.54 1015.98 1016.47 1016.78 1017.13 1017.21
1010.45 1011.07 1009.97 1008.81 1008.08 1005.84 1004.46 1003.37 1002.60 1001.84 1000.59 1000.50 1000.91 1001.91 1002.74 1003.16 1003.26 1003.94 1004.65 1005.52 1006.56 1007.61 1008.07 1008.54 1008.89 1009.51 1009.49 1010.03 1010.55 1010.90 1011.34 1011.67 1011.84 1012.13 1012.55 1012.93 1013.29 1013.61 1013.92 1014.33 1014.70 1015.02 1015.33 1015.60 1015.99 1016.38 1016.68 1017.00 1017.17
1010.15 1010.20 1008.47 1007.05 1007.39 1005.38 1004.14 1003.36 1002.16 1001.62 1000.95 1000.90 1001.15 1001.59 1002.51 1002.94 1003.60 1004.54 1005.35 1006.04 1006.77 1007.65 1008.20 1008.63 1008.95 1009.37 1009.43 1009.70 1010.37 1010.76 1011.29 1011.57 1011.96 1012.15 1012.38 1012.82 1013.25 1013.56 1013.82 1014.22 1014.62 1014.89 1015.40 1015.70 1016.09 1016.38 1016.69 1016.94 1017.30
1009.78 1009.20 1005.18 1006.58 1006.21 1005.42 1004.41 1003.15 1002.33 1002.09 1001.47 1001.33 1001.53 1002.18 1002.40 1002.71 1003.78 1004.74 1005.52 1006.26 1006.83 1007.41 1007.87 1008.28 1008.69 1009.08 1009.32 1009.36 1010.14 1010.64 1011.12 1011.61 1011.86 1012.11 1012.34 1012.63 1013.07 1013.45 1013.75 1014.15 1014.68 1014.99 1015.39 1015.75 1016.08 1016.33 1016.63 1016.96 1017.38
1009.17 1007.42 1005.13 1005.69 1005.66 1005.15 1004.24 1003.18 1002.46 1002.28 1002.00 1001.64 1001.68 1002.27 1002.43 1002.89 1003.49 1004.34 1004.92 1005.33 1005.95 1006.71 1007.55 1007.94 1008.33 1008.56 1008.99 1009.15 1009.72 1010.44 1010.93 1011.38 1011.68 1011.87 1012.13 1012.36 1012.81 1013.24 1013.60 1014.09 1014.54 1015.06 1015.34 1015.84 1016.20 1016.57 1016.85 1017.12 1017.44
1008.78 1006.13 1005.37 1005.43 1005.26 1004.69 1003.78 1003.19 1002.19 1002.27 1001.57 1001.17 1001.37 1001.67 1002.08 1002.37 1002.97 1003.67 1004.19 1004.80 1005.35 1006.00 1006.40 1007.07 1007.71 1008.13 1008.47 1008.64 1009.27 1009.78 1010.49 1010.85 1011.20 1011.43 1011.81 1012.21 1012.62 1013.06 1013.42 1013.92 1014.43 1014.87 1015.21 1015.73 1016.09 1016.48 1016.77 1017.09 1017.39
1007.68 1005.74 1005.82 1004.71 1004.76 1004.09 1003.57 1002.74 1002.12 1001.71 1001.55 1000.75 1000.88 1001.58 1001.90 1002.29 1002.67 1002.85 1003.20 1003.65 1004.38 1004.98 1005.47 1005.94 1006.67 1007.40 1007.93 1008.22 1008.75 1009.22 1009.84 1010.29 1010.51 1010.90 1011.34 1011.82 1012.35 1012.83 1013.08 1013.55 1014.21 1014.57 1015.02 1015.36 1015.86 1016.31 1016.70 1017.03 1017.34
1007.14 1005.93 1005.41 1004.44 1003.86 1003.29 1002.93 1001.88 1002.10 1000.94 1001.26 1000.83 1000.82 1001.11 1001.67 1002.19 1002.52 1002.76 1003.01 1002.95 1003.58 1003.99 1004.56 1004.99 1005.59 1006.13 1007.01 1007.60 1008.08 1008.65 1009.07 1009.43 1009.99 1010.43 1010.83 1011.31 1011.89 1012.40 1012.87 1013.35 1013.73 1014.12 1014.57 1015.06 1015.45 1015.96 1016.46 1016.91 1017.21
1006.43 1005.89 1004.97 1004.01 1002.97 1002.28 1002.70 1001.63 1000.42 1001.10 1001.08 1000.87 1000.88 1000.97 1001.00 1001.45 1001.83 1002.33 1002.42 1002.60 1002.56 1003.12 1003.44 1004.19 1004.83 1005.46 1005.99 1006.67 1007.40 1008.01 1008.50 1008.95 1009.70 1009.92 1010.42 1010.82 1011.50 1012.03 1012.44 1012.97 1013.53 1013.62 1014.15 1014.80 1015.32 1015.91 1016.36 1016.89 1017.15
1006.58 1005.93 1004.35 1002.04 1002.14 1002.04 1002.47 1000.62 1000.37 1000.65 1000.89 1000.89 1000.99 1001.09 1001.08 1000.89 1001.15 1001.47 1001.74 1001.99 1001.76 1002.02 1002.77 1003.21 1003.95 1004.64 1005.35 1005.74 1006.57 1007.35 1008.17 1008.71 1009.16 1009.54 1010.01 1010.24 1010.89 1011.52 1012.07 1012.59 1013.07 1013.41 1013.86 1014.43 1015.07 1015.74 1016.34 1016.68 1017.00
1006.39 1005.17 1003.96 1002.48 1002.73 1002.12 1001.77 1000.05 1000.33 1000.47 1000.49 1000.41 1000.60 1000.70 1000.81 1000.86 1000.73 1000.57 1000.94 1001.22 1001.33 1001.39 1001.81 1002.59 1003.21 1003.97 1004.66 1005.38 1005.95 1006.70 1007.68 1008.41 1008.88 1009.30 1009.70 1009.92 1010.43 1011.12 1011.66 1012.16 1012.51 1012.95 1013.71 1014.35 1014.96 1015.51 1015.84 1016.30 1016.63
1006.82 1005.94 1004.63 1002.93 1002.06 1001.65 1000.96 999.59 1000.37 999.86 1000.06 999.91 1000.26 1000.29 1000.24 1000.15 1000.15 1000.12 1000.36 1000.40 1000.59 1000.77 1001.11 1001.88 1002.49 1003.17 1003.88 1004.83 1005.71 1006.42 1007.31 1008.04 1008.52 1009.02 1009.37 1009.55 1010.01 1010.68 1011.37 1011.97 1012.45 1012.59 1013.40 1014.04 1014.68 1015.11 1015.59 1015.83 1016.22
1006.94 1005.92 1004.61 1002.85 1002.17 1001.46 1000.56 999.60 999.83 999.47 999.13 999.30 999.33 999.53 999.60 999.50 999.24 999.29 999.45 999.76 1000.00 1000.28 1000.89 1001.52 1002.22 1003.09 1003.91 1004.58 1005.39 1006.00 1006.78 1007.72 1008.35 1008.66 1008.97 1009.22 1009.73 1010.29 1010.95 1011.65 1012.20 1012.54 1012.98 1013.37 1014.08 1014.61 1015.13 1015.50 1015.92
1006.51 1005.87 1004.60 1003.37 1002.04 1001.36 1000.74 1000.37 999.88 998.76 998.28 998.33 998.76 998.97 999.25 998.99 999.01 999.15 999.38 999.81 1000.00 1000.06 1000.25 1001.23 1001.88 1002.43 1003.15 1003.76 1004.44 1005.11 1005.83 1007.14 1007.84 1008.36 1008.79 1008.84 1009.30 1009.79 1010.41 1011.05 1011.69 1012.21 1012.74 1013.18 1013.63 1014.24 1014.79 1015.13 1015.45
1005.61 1005.22 1004.39 1003.82 1002.53 1001.74 1002.49 1001.28 999.86 998.35 997.37 997.70 997.79 998.17 998.53 998.72 998.97 999.14 999.50 999.95 1000.17 1000.34 1000.17 1000.58 1001.29 1002.00 1002.73 1003.51 1004.42 1005.26 1005.93 1006.95 1007.80 1008.06 1008.33 1008.58 1008.79 1009.24 1009.80 1010.52 1011.23 1011.68 1012.07 1012.83 1013.27 1013.82 1014.30 1014.62 1014.90
1004.77 1004.49 1003.95 1003.65 1003.43 1003.47 1003.98 1002.60 999.98 999.01 997.59 996.90 997.20 998.12 998.93 999.47 999.85 1000.15 1000.56 1001.05 1001.14 1001.04 1000.61 1001.15 1000.34 1001.14 1001.97 1002.82 1003.56 1004.22 1004.81 1005.96 1006.74 1007.34 1007.95 1008.33 1008.67 1008.93 1009.30 1010.04 1010.81 1011.42 1011.78 1012.46 1012.97 1013.38 1013.81 1014.17 1014.23
1003.91 1003.77 1003.73 1003.66 1004.71 1005.24 1004.21 1004.07 1000.14 998.66 997.71 997.19 997.42 998.81 999.79 1000.60 1001.04 1001.57 1001.96 1002.19 1002.33 1002.19 1002.41 1002.29 1002.20 1001.41 1001.17 1001.80 1002.35 1003.11 1004.16 1005.11 1006.02 1007.04 1007.80 1008.19 1008.51 1008.72 1009.04 1009.66 1010.32 1011.15 1011.52 1012.10 1012.61 1013.12 1013.31 1013.59 1013.78
1003.36 1003.86 1004.34 1004.54 1005.59 1006.10 1003.73 1003.51 1000.70 999.02 997.58 997.18 998.46 999.74 1000.66 1001.55 1002.09 1002.63 1002.84 1002.87 1003.18 1003.35 1003.35 1003.12 1002.49 1002.66 1001.86 1001.84 1001.87 1002.20 1003.08 1004.40 1005.52 1006.44 1007.14 1007.78 1008.14 1008.58 1008.90 1009.34 1009.98 1010.60 1011.14 1011.70 1012.22 1012.71 1012.95 1013.18 1013.40
1002.86 1003.75 1005.25 1006.15 1006.96 1005.15 1003.44 1003.35 1001.26 999.63 998.45 998.88 1000.03 1001.27 1002.28 1002.94 1003.52 1004.08 1004.35 1004.59 1004.67 1004.65 1004.52 1004.01 1003.72 1002.64 1002.68 1001.62 1001.58 1001.62 1002.28 1003.22 1004.42 1005.46 1006.29 1007.11 1007.70 1007.99 1008.37 1008.77 1009.53 1010.12 1010.60 1011.28 1011.94 1012.31 1012.68 1012.91 1013.31
1002.98 1003.47 1005.12 1005.59 1005.70 1004.63 1003.89 1002.66 1000.74 1000.51 999.56 1001.45 1001.95 1002.80 1003.69 1004.41 1005.19 1005.80 1006.03 1006.43 1006.59 1006.10 1005.63 1005.07 1004.28 1003.07 1001.97 1001.36 1000.95 1001.20 1001.87 1002.70 1003.45 1004.35 1005.33 1006.16 1006.87 1007.46 1008.00 1008.43 1009.06 1009.60 1010.18 1010.86 1011.60 1011.94 1012.37 1012.70 1013.11
1002.40 1003.02 1004.18 1005.33 1005.22 1004.85 1003.41 1002.85 1001.96 1001.94 1001.12 1002.81 1004.00 1004.38 1005.36 1006.31 1007.07 1007.58 1008.17 1008.62 1008.06 1007.54 1006.85 1005.88 1004.43 1002.91 1001.09 1000.35 1000.29 1000.72 1001.34 1001.96 1002.66 1003.42 1004.47 1005.36 1006.11 1006.86 1007.51 1008.07 1008.68 1009.13 1009.64 1010.21 1011.12 1011.48 1012.00 1012.38 1012.89
1001.74 1002.84 1004.41 1005.95 1006.29 1005.43 1004.09 1004.62 1004.84 1005.33 1004.71 1005.43 1005.78 1007.13 1007.81 1008.59 1009.19 1009.67 1009.92 1009.55 1008.98 1008.34 1007.43 1006.29 1004.83 1002.98 1000.10 999.40 999.75 1000.14 1000.54 1001.08 1002.12 1002.81 1003.90 1004.85 1005.60 1006.24 1007.01 1007.65 1008.31 1008.77 1009.23 1009.71 1010.52 1011.08 1011.65 1012.12 1012.53
1003.34 1003.61 1004.99 1006.37 1006.48 1005.97 1005.41 1006.72 1007.37 1007.60 1007.39 1007.00 1007.84 1008.67 1010.45 1010.93 1011.11 1010.88 1010.36 1010.22 1009.78 1008.82 1007.99 1006.74 1005.10 1003.69 1001.20 999.82 999.46 999.70 1000.21 1000.73 1001.84 1002.40 1003.04 1004.04 1004.92 1005.65 1006.62 1007.25 1007.89 1008.28 1008.79 1009.25 1009.93 1010.52 1011.11 1011.61 1012.03
1004.66 1004.82 1005.38 1006.30 1006.46 1006.69 1006.64 1009.23 1009.57 1009.59 1009.01 1009.60 1009.87 1011.25 1011.93 1011.98 1011.68 1011.60 1011.35 1011.05 1010.45 1009.74 1008.90 1007.80 1006.60 1004.82 1003.39 1001.86 1000.91 1000.29 1000.50 1000.95 1001.69 1002.29 1002.78 1003.74 1004.71 1005.49 1006.24 1006.87 1007.51 1008.00 1008.41 1008.84 1009.36 1009.96 1010.66 1011.21 1011.51
Thickness
5739 5737 5736 5729 5698 5700 5701 5731 5765 5775 5779 5808 5817 5805 5796 5800 5781 5749 5799 5806 5800 5791 5785 5781 5779 5775 5769 5765 5761 5756 5752 5747 5742 5738 5733 5728 5724 5720 5716 5713 5711 5708 5704 5702 5700 5697 5695 5693 5692
5732 5731 5725 5712 5686 5678 5700 5753 5755 5770 5789 5807 5816 5811 5801 5777 5800 5792 5792 5798 5797 5788 5782 5778 5777 5772 5765 5762 5758 5754 5749 5744 5739 5735 5729 5723 5720 5717 5713 5709 5705 5703 5700 5698 5696 5693 5691 5689 5686
5724 5724 5701 5690 5684 5694 5702 5756 5759 5771 5793 5799 5798 5813 5803 5778 5795 5797 5804 5798 5792 5783 5779 5776 5774 5768 5761 5756 5754 5750 5746 5741 5736 5731 5725 5720 5717 5713 5710 5706 5702 5699 5697 5695 5692 5689 5686 5683 5680
5712 5706 5699 5684 5688 5712 5730 5761 5760 5758 5781 5796 5795 5782 5800 5804 5797 5803 5805 5797 5788 5780 5776 5773 5770 5764 5758 5753 5749 5746 5742 5736 5732 5727 5721 5717 5714 5710 5707 5704 5700 5696 5694 5690 5688 5684 5680 5677 5675
5702 5696 5675 5676 5692 5719 5741 5762 5756 5753 5765 5775 5785 5774 5777 5797 5808 5801 5798 5796 5786 5777 5772 5769 5766 5761 5755 5751 5746 5741 5738 5733 5728 5723 5718 5714 5712 5708 5704 5701 5698 5693 5690 5685 5682 5680 5677 5672 5668
5679 5688 5669 5678 5698 5719 5739 5764 5761 5759 5768 5771 5769 5775 5772 5794 5797 5795 5793 5789 5785 5775 5769 5764 5760 5757 5753 5748 5743 5738 5733 5729 5725 5720 5716 5712 5709 5706 5701 5696 5692 5689 5686 5683 5678 5676 5673 5669 5666
5678 5669 5673 5683 5695 5711 5733 5758 5752 5757 5763 5764 5779 5762 5773 5776 5789 5792 5791 5787 5778 5770 5765 5759 5755 5752 5752 5745 5738 5735 5731 5727 5722 5718 5714 5710 5706 5702 5698 5692 5689 5684 5681 5679 5676 5672 5670 5666 5663
5681 5667 5673 5689 5687 5705 5738 5749 5757 5752 5758 5787 5781 5750 5754 5769 5780 5781 5784 5778 5770 5762 5759 5755 5751 5746 5747 5742 5735 5732 5727 5723 5720 5716 5711 5707 5703 5698 5694 5689 5684 5680 5677 5674 5673 5669 5668 5664 5661
5677 5655 5674 5692 5685 5712 5738 5735 5754 5764 5761 5765 5771 5768 5764 5774 5770 5765 5765 5765 5760 5754 5752 5750 5747 5742 5742 5740 5732 5729 5724 5720 5716 5712 5709 5705 5700 5695 5691 5686 5681 5677 5672 5670 5667 5666 5663 5661 5657
5649 5649 5703 5697 5702 5704 5721 5734 5745 5739 5744 5746 5754 5759 5763 5767 5762 5751 5750 5751 5751 5748 5748 5747 5744 5740 5738 5737 5731 5726 5721 5716 5713 5710 5706 5702 5697 5693 5688 5682 5676 5673 5668 5666 5664 5662 5659 5656 5653
5648 5656 5706 5696 5699 5703 5708 5719 5738 5728 5718 5733 5743 5742 5750 5755 5752 5747 5749 5752 5752 5749 5745 5744 5741 5739 5735 5734 5729 5722 5718 5714 5711 5708 5704 5701 5694 5690 5685 5680 5675 5669 5665 5662 5659 5656 5652 5650 5649
5625 5673 5685 5685 5688 5691 5697 5708 5715 5718 5725 5742 5748 5749 5744 5744 5748 5745 5745 5748 5749 5749 5747 5745 5742 5738 5735 5731 5728 5722 5717 5713 5710 5708 5703 5698 5692 5687 5683 5677 5672 5667 5663 5659 5657 5653 5649 5647 5644
5624 5663 5660 5681 5676 5685 5695 5698 5708 5714 5726 5745 5746 5745 5739 5736 5742 5748 5751 5751 5750 5747 5750 5747 5744 5738 5735 5731 5727 5723 5717 5712 5710 5707 5702 5696 5690 5685 5681 5677 5669 5665 5660 5657 5653 5649 5645 5642 5640
5629 5642 5646 5661 5668 5681 5678 5695 5693 5717 5719 5728 5736 5735 5734 5732 5735 5741 5745 5749 5745 5747 5746 5750 5746 5742 5735 5730 5727 5722 5718 5714 5711 5707 5702 5697 5690 5684 5679 5675 5670 5665 5659 5655 5653 5647 5642 5639 5635
5625 5617 5633 5644 5665 5669 5674 5666 5687 5704 5708 5713 5720 5728 5733 5733 5733 5731 5739 5742 5747 5745 5747 5745 5745 5743 5736 5731 5727 5722 5716 5713 5709 5707 5701 5695 5688 5682 5677 5673 5666 5664 5659 5652 5648 5642 5637 5633 5629
5596 5600 5607 5659 5663 5662 5652 5648 5691 5695 5693 5699 5709 5714 5722 5729 5732 5730 5735 5738 5745 5747 5743 5744 5741 5741 5737 5732 5726 5721 5714 5710 5706 5703 5699 5694 5688 5681 5676 5671 5665 5661 5657 5650 5644 5637 5631 5628 5625
5580 5578 5599 5634 5637 5642 5641 5654 5676 5686 5688 5695 5701 5705 5713 5717 5725 5732 5734 5736 5740 5744 5743 5738 5737 5735 5733 5729 5723 5719 5711 5706 5703 5698 5694 5692 5686 5679 5674 5670 5665 5659 5653 5646 5639 5633 5630 5625 5622
5559 5567 5586 5606 5630 5636 5636 5654 5657 5676 5682 5689 5691 5696 5702 5713 5718 5730 5733 5737 5739 5742 5741 5738 5733 5734 5730 5726 5718 5712 5706 5703 5699 5694 5690 5689 5683 5677 5671 5665 5661 5657 5650 5644 5636 5631 5626 5624 5620
5546 5554 5568 5599 5621 5623 5631 5648 5653 5666 5679 5680 5689 5691 5698 5702 5718 5728 5732 5734 5735 5734 5731 5731 5726 5724 5720 5718 5710 5705 5700 5696 5693 5690 5687 5685 5680 5674 5668 5663 5657 5653 5649 5644 5636 5629 5623 5620 5616
5531 5536 5551 5580 5608 5621 5622 5613 5636 5660 5669 5682 5684 5686 5691 5700 5712 5719 5724 5724 5725 5728 5729 5723 5722 5720 5717 5717 5714 5706 5700 5691 5689 5686 5682 5681 5677 5673 5667 5663 5656 5650 5645 5640 5635 5626 5620 5617 5612
5525 5530 5548 5563 5594 5609 5586 5601 5625 5654 5668 5673 5682 5688 5690 5692 5698 5708 5711 5710 5710 5713 5720 5720 5718 5716 5711 5708 5705 5696 5692 5685 5681 5681 5676 5676 5675 5672 5666 5661 5653 5649 5645 5637 5632 5625 5618 5612 5610
5518 5543 5557 5570 5578 5567 5577 5573 5613 5637 5653 5667 5677 5682 5678 5676 5683 5686 5687 5689 5693 5699 5708 5709 5721 5716 5709 5705 5703 5698 5692 5684 5682 5677 5671 5668 5669 5668 5664 5659 5651 5645 5641 5634 5630 5624 5617 5612 5609
5530 5551 5559 5571 5541 5549 5567 5559 5607 5634 5639 5656 5670 5660 5658 5659 5662 5667 5672 5675 5678 5682 5684 5691 5696 5705 5706 5703 5703 5700 5689 5683 5678 5670 5664 5661 5661 5662 5660 5656 5650 5641 5637 5632 5627 5620 5617 5612 5609
5545 5549 5541 5548 5545 5524 5577 5572 5594 5619 5642 5651 5646 5646 5647 5649 5652 5653 5656 5662 5664 5666 5668 5673 5683 5684 5694 5694 5697 5699 5691 5679 5672 5666 5662 5657 5656 5655 5654 5652 5647 5640 5635 5629 5624 5618 5615 5610 5607
5543 5534 5509 5517 5501 5537 5581 5572 5598 5622 5641 5634 5628 5624 5627 5632 5632 5630 5633 5637 5640 5642 5647 5655 5659 5674 5675 5687 5690 5695 5690 5682 5671 5663 5660 5654 5652 5653 5651 5650 5644 5639 5633 5627 5621 5616 5611 5608 5604
5537 5535 5509 5527 5528 5549 5577 5577 5599 5625 5626 5613 5610 5608 5611 5611 5608 5608 5609 5609 5611 5621 5629 5635 5644 5659 5671 5679 5687 5689 5682 5676 5671 5665 5659 5654 5651 5649 5646 5646 5642 5637 5631 5626 5618 5614 5608 5605 5601
5541 5536 5548 5537 5553 5549 5574 5579 5600 5601 5614 5599 5593 5595 5593 5589 5586 5584 5584 5583 5591 5599 5609 5620 5634 5649 5669 5677 5681 5679 5676 5672 5670 5665 5657 5653 5649 5646 5643 5641 5638 5635 5630 5625 5617 5612 5606 5602 5598
5549 5555 5531 5524 5534 5544 5575 5560 5568 5555 5567 5563 5568 5562 5564 5564 5563 5561 5559 5564 5573 5583 5594 5606 5622 5641 5671 5677 5675 5674 5672 5670 5662 5660 5653 5648 5647 5644 5639 5637 5633 5631 5628 5624 5617 5611 5606 5600 5597
5529 5532 5525 5527 5531 5542 5557 5551 5540 5531 5536 5537 5539 5538 5531 5533 5536 5540 5547 5550 5558 5571 5580 5593 5609 5623 5651 5663 5667 5667 5663 5661 5653 5652 5652 5647 5645 5641 5633 5632 5630 5628 5625 5623 5617 5612 5606 5601 5597
5521 5529 5533 5522 5532 5537 5543 5523 5515 5510 5515 5522 5524 5519 5517 5520 5524 5528 5533 5536 5545 5554 5563 5574 5587 5603 5618 5636 5644 5650 5650 5648 5644 5643 5644 5642 5638 5634 5630 5628 5625 5623 5622 5620 5616 5612 5606 5600 5597